AURA

Last updated on Sun Apr 05 2026 00:02:32 GMT+0000 (Coordinated Universal Time)

1 28376U 04026A 26094.23946472 .00001668 00000+0 34836-3 0 9993 2 28376 98.3354 50.1160 0001427 94.5482 265.5881 14.61212298155416
UTC large
Height (km)
Speed (km/s)
/
Latitude / Longitude
Inclination (degrees)
Orbital Period (minutes)
Azimuth
Elevation
Range (km)
Doppler Factor

Next 0 passes for location: London (51.5072 / 0.1276)

Sorry there are no passes over London.